Regional Weather Roundup
Issued by NWS

Home | Current Version | Previous Version | Text Only | Print | Product List | Glossary On
Versions: 1 2 3 4 5 6 7 8 9 10 11 12 13 14 15 16 17 18 19 20 21 22 23 24 25 26 27 28 29 30 31 32 33 34 35 36 37 38 39 40 41 42 43 44 45 46 47 48 49 50
000
ASUS42 KTBW 010317
RWRFL
FLORIDA REGIONAL WEATHER ROUNDUP
NATIONAL WEATHER SERVICE TAMPA BAY RUSKIN FL
1100 PM EDT SUN APR 30 2017

NOTE: "FAIR" INDICATES FEW OR NO CLOUDS BELOW 12,000 FEET WITH NO
SIGNIFICANT WEATHER AND/OR OBSTRUCTIONS TO VISIBILITY.

FLZ001>010-012>015-112-114-115-010400-
PANHANDLE FLORIDA

CITY           SKY/WX    TMP DP  RH WIND       PRES   REMARKS
PENSACOLA      LGT RAIN  77  73  87 SE14      29.97S
PENSACOLA NAS  TSTM      76  73  91 SE12      29.98R
MILTON NAS     TSTM      75  73  93 SE12      29.99
CRESTVIEW      CLOUDY    76  71  85 S5        30.02R
DUKE FIELD     MOCLDY    76  71  85 SE13      29.99R
VALPARAISO     CLOUDY    76  72  88 SE15      30.00R
MARY ESTHER    CLOUDY    75  72  88 SE9       29.98R
PANAMA CITY    MOCLDY    77  71  82 SE7       30.01R
TYNDALL AFB    CLOUDY    76  72  87 SE10      30.01R
APALACHICOLA   CLOUDY    77  74  90 S10       30.00S

STATION/POSITION SKY/WX   TEMP    WIND        PRES    WAVE   SWELL
                          AIR SEA DIR/SP/G            HT/PER HT/PER
                          (F)     (DEG/KT/KT) (MB)    (FT/S) (FT/S)
30.1N   87.6W              76 75  140/ 12/ 16 1014.7    7/ 8   5/ 8
29.2N   88.2W              77 76  130/ 17/ 23 1012.0S   8/ 8   3/16
28.8N   86.0W              76 75  140/ 16/ 19 1014.7R   6/ 8   3/ 8
PANAMA CITY BEAC           76 77  130/ 15/ 18 1016.4R
TOWER C                    76     190/ 17/ 19 1016.1F
28.5N   84.5W              76 75  190/ 14/ 16 1015.7R   5/ 7   5/ 7

$$
FLZ011-016>038-118-127-128-134-139-239-010400-
NORTH FLORIDA

CITY           SKY/WX    TMP DP  RH WIND       PRES   REMARKS
MARIANNA       PTCLDY    75  70  84 S6        30.01S
TALLAHASSEE    PTCLDY    71  67  87 CALM      30.01F
PERRY          CLOUDY    73  68  84 CALM      30.04S
CROSS CITY     CLOUDY    75  70  83 CALM      30.06R
LAKE CITY      MOCLDY    75  72  88 SE7       30.06F
GAINESVILLE    CLOUDY    79  68  69 SE13      30.07S
WILLISTON      PTCLDY    75  73  94 SE5       30.07S
PALATKA        FAIR      75  73  94 SE10G17   30.09S
MAYPORT NAS    CLOUDY    72  72 100 SE18G26   30.09R
JACKSONVILLE   CLOUDY    75  71  87 SE17      30.07F
JAX NAS        CLOUDY    77  70  79 S14       30.09R
FERNANDINA BEA FAIR      79  72  78 SE17G26   30.07S
ST AUGUSTINE   PTCLDY    76  71  85 S20G25    30.10S

STATION/POSITION SKY/WX   TEMP    WIND        PRES    WAVE   SWELL
                          AIR SEA DIR/SP/G            HT/PER HT/PER
                          (F)     (DEG/KT/KT) (MB)    (FT/S) (FT/S)
SHELL POINT      NOT AVBL
KEATON BEACH               79     190/  8/  9 1016.8S
CEDAR KEY                  80     140/  8/  9 1018.0R
FERNANDINA                 77 79  150/ 12/ 20 1019.4R
30.7N   81.3W                 76                N/A     5/ 6
MAYPORT                    76 78  160/ 11/ 19 1019.2S
31.4N   80.9W              75 74  150/ 17/ 19 1018.6F   4/ 7   2/11
ST AUGUSTINE               76 78  150/ 24/ 27 1019.7F

$$
FLZ040-043>046-052-053-057-058-063-144-010400-
INTERIOR CENTRAL FLORIDA

CITY           SKY/WX    TMP DP  RH WIND       PRES   REMARKS
OCALA          MOCLDY    79  66  65 SE5       30.08F
THE VILLAGES     N/A     79  70  73 MISG      29.98S
LEESBURG       MOCLDY    78  70  76 SE14      30.09S
SANFORD        CLEAR     75  69  81 SE10      30.10F
ORLANDO EXEC   CLEAR     75  69  81 SE13      30.11S
ORLANDO INTL   PTCLDY    73  70  90 SE12      30.11S
KISSIMMEE      PTCLDY    76  70  82 SE9       30.12R
WINTER HAVEN   PTCLDY    77  66  68 SE16      30.11R
LAKELAND       CLOUDY    77  68  73 SE13G22   30.09R
BARTOW         FAIR      75  68  78 SE14      30.10S
OKEECHOBEE     PTCLDY    73  70  88 E9        30.13R

$$
FLZ041-047-054-059-064-141-147-010400-
EAST CENTRAL FLORIDA

CITY           SKY/WX    TMP DP  RH WIND       PRES   REMARKS
DAYTONA BEACH  PTCLDY    76  72  87 SE6G17    30.10F
DELAND         CLEAR     75  70  83 SE10      30.10F
JFK SPACE CTR  CLEAR     76  71  84 SE14G22   30.11F
CAPE CANAVERAL CLEAR     76  70  82 SE20      30.12R
PATRICK AFB    CLEAR     77  74  89 SE21      30.12S
MELBOURNE      MOCLDY    78  71  79 E10       30.13R
VERO BEACH     CLEAR     77  71  82 SE14      30.13R
FT PIERCE      CLEAR     79  71  76 SE16      30.13R
STUART         CLEAR     79  73  83 SE12      30.14

STATION/POSITION SKY/WX   TEMP    WIND        PRES    WAVE   SWELL
                          AIR SEA DIR/SP/G            HT/PER HT/PER
                          (F)     (DEG/KT/KT) (MB)    (FT/S) (FT/S)
28.5N   80.2W              77 76  120/ 16/ 17 1021.5R   5/ 8   2/ 8
28.9N   78.5W              76 76  120/ 12/ 14 1022.0R   6/ 8   5/ 8
TRIDENT PIER               76 80  110/  7/ 15 1021.8R
28.4N   80.5W                 78                N/A     4/ 5
27.5N   80.2W                 74                N/A     4/ 5

$$
FLZ050-056-061-142-242-148-248-149-249-151-251-155-255-
160-260-010400-
WEST CENTRAL FLORIDA

CITY           SKY/WX    TMP DP  RH WIND       PRES   REMARKS
CRYSTAL RIVER  MOCLDY    77  72  83 E3        30.06S
INVERNESS      FAIR      79  70  73 SE9       30.08S
BROOKSVILLE    MOCLDY    80  68  66 SE10      30.07F
CLEARWATER AIR CLOUDY    79  72  78 SE7       30.06R
ST PETE CLEARW CLOUDY    78  72  81 SE7       30.06S
TAMPA INTL     CLOUDY    83  68  60 SE14G21   30.07S
TAMPA EXEC     CLOUDY    82  68  61 SE9G17    30.07S
PLANT CITY     CLOUDY    81  70  69 SE12G17   30.09S
MACDILL AFB    CLOUDY    80  71  73 SE21      30.06S
PETER O KNIGHT CLOUDY    82  72  69 SE16G24   30.07S
ST PETERSBURG  CLOUDY    80  70  71 SE17      30.04F
SARASOTA       PTCLDY    80  67  64 SE10      30.04F
VENICE         FAIR      81  70  69 SE12G21   30.06F

STATION/POSITION SKY/WX   TEMP    WIND        PRES    WAVE   SWELL
                          AIR SEA DIR/SP/G            HT/PER HT/PER
                          (F)     (DEG/KT/KT) (MB)    (FT/S) (FT/S)
27.3N   84.2W                 75                N/A     5/ 7
CLEARWATER BEACH           80 81  130/  5/  9 1017.8S
MIDDLE TAMPA BAY           80     150/ 12/ 15 1018.0F
VENICE                     80 82  140/  6/  8 1017.6R

$$
FLZ066-069-070-075>078-162-262-165-265-010400-
SOUTHWEST FLORIDA AND KEYS

CITY           SKY/WX    TMP DP  RH WIND       PRES   REMARKS
PUNTA GORDA    CLEAR     78  69  73 SE13      30.09S
FT MYERS       CLEAR     78  70  76 SE13      30.08R
SOUTHWEST INTL CLEAR     77  68  73 E10       30.09R
NAPLES         MOCLDY    79  70  74 E12       30.08R
MARCO ISLAND   CLOUDY    75  70  83 E7        30.09R
IMMOKALEE      FAIR      75  70  83 E6        30.10R
MARATHON       PTCLDY    81  74  79 SE12G22   30.07R
KEY WEST NAS   CLOUDY   N/A N/A N/A SE21G28   30.07R
KEY WEST INTL  PTCLDY    80  73  79 SE22G29   30.07R

STATION/POSITION SKY/WX   TEMP    WIND        PRES    WAVE   SWELL
                          AIR SEA DIR/SP/G            HT/PER HT/PER
                          (F)     (DEG/KT/KT) (MB)    (FT/S) (FT/S)
NAPLES                        80   90/  3/  9 1018.7R
26.0N   85.6W              80     120/ 17/ 23 1014.6R   7/ 8   5/ 8
DRY TORTUGAS               80     120/ 25/ 28 1017.1S
SAND KEY                   80     130/ 22/ 26 1018.3R
LONG KEY                   80 81  120/ 20/ 22 1018.5R
MOLASSES REEF              79 79  110/ 15/ 17 1018.4R

$$
FLZ067-068-071>074-168-172>174-010400-
SOUTHEAST FLORIDA

CITY           SKY/WX    TMP DP  RH WIND       PRES   REMARKS
W PALM BEACH   MOCLDY    78  69  73 E21       30.13R
BOCA RATON     MOCLDY    79  72  78 SE15      30.12R
FT LAUDER-EXEC CLOUDY    81  70  69 E16G25    30.11R
FT LAUDERDALE  MOCLDY    80  72  76 E21G28    30.10R
POMPANO BEACH  CLOUDY    79  72  79 E20G28    30.11R
PEMBROKE PINES MOCLDY    79  72  79 E18G25    30.12R
OPA LOCKA      MOCLDY    78  71  79 SE17      30.11R
MIAMI          PTCLDY    80  71  74 E21G30    30.10R
WEST KENDALL   CLOUDY    79  72  79 E16G28    30.09R
HOMESTEAD      PTCLDY    78  74  86 E15G26    30.08S

STATION/POSITION SKY/WX   TEMP    WIND        PRES    WAVE   SWELL
                          AIR SEA DIR/SP/G            HT/PER HT/PER
                          (F)     (DEG/KT/KT) (MB)    (FT/S) (FT/S)
PORT EVERGLADES            79     100/  7/ 13 1019.3R
VIRGINIA KEY               80 81   80/ 16/ 22 1018.2R
LAKE WORTH                 78 80  110/ 20/ 24 1020.8R
FOWEY ROCKS                79 80   90/ 22/ 24 1019.3R
SETTLEMENT POINT           77     120/ 14/ 18 1021.0R

$$




USA.gov is the U.S. government's official web portal to all federal, state and local government web resources and services.